sat.trackr.live / text

‹ back to catalog

STARLINK-2492

NORAD 48149 · 2021-027BK

PAYLOAD ACTIVE UNKNOWN

§ Identity

Operator
Country
US
Launch date
2021-04-07
Launch site
AFETR
Launch vehicle
Mass (kg)
RCS (m²)

Purposes: comms

External: N2YO · Heavens-Above · Gunter

§ Orbital elements

Epoch: 2026-05-25T01:28:57.237312Z

Period
94.11 min
Inclination
53.1580°
Eccentricity
0.0001443
Mean motion
15.30193875 rev/d
Perigee alt
474.2 km
Apogee alt
476.2 km
Semi-major
6,853.4 km
B*
7.1929e-5
RAAN
157.7088°
Arg perigee
94.3920°
Mean anomaly
265.7246°
Rev number
28,437

§ Raw data

STARLINK-24921 48149U 21027BK  26145.06177358  .00001771  00000+0  71929-4 0  99902 48149  53.1580 157.7088 0001443  94.3920 265.7246 15.30193875284373

JSON: /api/v1/satellites/48149 · /tle

For live sub-satellite position, see the globe view (requires WebGL).

§ Visibility from observer

Set your observer location to see the next 7 days of passes ≥ 10°. The values pass through the URL so the page stays shareable.

No JS? Fill the form by hand. The geolocation button needs JavaScript.